• In Deutschland
  • Länderverzeichnis
  • Für 7 Tage
  • Wassertemperatur
  • Satellitenkarten
  • Wetterkarte
  • Widgets
  • user-avatar
    Anmelden

    Stündliche Wetter Belize

    Heute, 23 Juli, Sonntag

    Zeit Temperatur Niederschläge Wind Luftdruck Luftfeuchtigkeit
    00:00 +26°C° 0,3 mm 4 m/S 760 mmHg 97%
    01:00 +26°C° 0,5 mm 4 m/S 760 mmHg 97%
    02:00 +26°C° 0,5 mm 3 m/S 759 mmHg 97%
    03:00 +26°C° 0,5 mm 3 m/S 759 mmHg 97%
    04:00 +26°C° 0,6 mm 4 m/S 759 mmHg 97%
    05:00 +26°C° 0,6 mm 4 m/S 759 mmHg 97%
    06:00 +26°C° 0,6 mm 4 m/S 759 mmHg 96%
    07:00 +27°C° 0,3 mm 4 m/S 759 mmHg 93%
    08:00 +29°C° 0,3 mm 4 m/S 760 mmHg 89%
    09:00 +30°C° 0,3 mm 4 m/S 760 mmHg 85%
    10:00 +30°C° 0,7 mm 4 m/S 760 mmHg 85%
    11:00 +32°C° 0,7 mm 4 m/S 760 mmHg 84%
    12:00 +32°C° 0,7 mm 4 m/S 760 mmHg 84%
    13:00 +33°C° 0,2 mm 4 m/S 759 mmHg 76%
    14:00 +34°C° 0,2 mm 4 m/S 759 mmHg 68%
    15:00 +35°C° 0,2 mm 4 m/S 758 mmHg 60%
    16:00 +33°C° 0 mm 4 m/S 758 mmHg 66%
    17:00 +32°C° 0 mm 4 m/S 758 mmHg 72%
    18:00 +30°C° 0 mm 5 m/S 758 mmHg 79%
    19:00 +29°C° 0,1 mm 5 m/S 759 mmHg 85%
    20:00 +28°C° 0,1 mm 5 m/S 759 mmHg 91%
    21:00 +27°C° 0,1 mm 5 m/S 759 mmHg 97%
    22:00 +27°C° 0,2 mm 5 m/S 759 mmHg 97%
    23:00 +27°C° 0,2 mm 5 m/S 759 mmHg 97%

    Morgen, 24 Juli, Montag

    Zeit Temperatur Niederschläge Wind Luftdruck Luftfeuchtigkeit
    00:00 +27°C° 0,2 mm 5 m/S 759 mmHg 98%
    01:00 +27°C° 0,1 mm 5 m/S 759 mmHg 98%
    02:00 +27°C° 0,1 mm 5 m/S 759 mmHg 98%
    03:00 +27°C° 0,1 mm 4 m/S 758 mmHg 99%
    04:00 +27°C° 0,4 mm 5 m/S 759 mmHg 99%
    05:00 +27°C° 0,4 mm 5 m/S 759 mmHg 98%
    06:00 +27°C° 0,4 mm 5 m/S 759 mmHg 98%
    07:00 +28°C° 0,2 mm 5 m/S 759 mmHg 95%
    08:00 +29°C° 0,2 mm 5 m/S 760 mmHg 91%
    09:00 +30°C° 0,2 mm 5 m/S 760 mmHg 87%
    10:00 +32°C° 0,4 mm 5 m/S 760 mmHg 85%
    11:00 +32°C° 0,4 mm 5 m/S 760 mmHg 82%
    12:00 +33°C° 0,4 mm 5 m/S 760 mmHg 80%
    13:00 +33°C° 0,7 mm 5 m/S 760 mmHg 79%
    14:00 +33°C° 0,7 mm 5 m/S 759 mmHg 79%
    15:00 +33°C° 0,7 mm 5 m/S 759 mmHg 78%
    16:00 +32°C° 0,8 mm 5 m/S 759 mmHg 81%
    17:00 +30°C° 0,8 mm 5 m/S 759 mmHg 83%
    18:00 +30°C° 0,8 mm 5 m/S 759 mmHg 86%
    19:00 +29°C° 0,1 mm 5 m/S 759 mmHg 90%
    20:00 +28°C° 0,1 mm 5 m/S 760 mmHg 93%
    21:00 +28°C° 0,1 mm 5 m/S 760 mmHg 97%
    22:00 +28°C° 0,2 mm 5 m/S 760 mmHg 97%
    23:00 +28°C° 0,2 mm 6 m/S 760 mmHg 97%

    übermorgen, 25 Juli, Dienstag

    Zeit Temperatur Niederschläge Wind Luftdruck Luftfeuchtigkeit
    00:00 +28°C° 0,2 mm 6 m/S 760 mmHg 98%
    01:00 +27°C° 0,1 mm 6 m/S 760 mmHg 98%
    02:00 +27°C° 0,1 mm 5 m/S 760 mmHg 98%
    03:00 +27°C° 0,1 mm 5 m/S 759 mmHg 98%
    04:00 +27°C° 0,1 mm 5 m/S 760 mmHg 98%
    05:00 +27°C° 0,1 mm 5 m/S 760 mmHg 98%
    06:00 +27°C° 0,1 mm 5 m/S 760 mmHg 98%
    07:00 +28°C° 1,1 mm 5 m/S 761 mmHg 96%
    08:00 +29°C° 1,1 mm 5 m/S 761 mmHg 94%
    09:00 +30°C° 1,1 mm 5 m/S 762 mmHg 92%
    10:00 +30°C° 0,9 mm 5 m/S 762 mmHg 89%
    11:00 +32°C° 0,9 mm 5 m/S 761 mmHg 87%
    12:00 +32°C° 0,9 mm 4 m/S 761 mmHg 85%
    13:00 +32°C° 0,2 mm 4 m/S 761 mmHg 80%
    14:00 +33°C° 0,2 mm 5 m/S 760 mmHg 76%
    15:00 +33°C° 0,2 mm 5 m/S 760 mmHg 72%
    16:00 +32°C° 0,1 mm 5 m/S 760 mmHg 76%
    17:00 +32°C° 0,1 mm 4 m/S 760 mmHg 79%
    18:00 +30°C° 0,1 mm 4 m/S 760 mmHg 83%
    19:00 +29°C° 0,1 mm 4 m/S 760 mmHg 87%
    20:00 +28°C° 0,1 mm 4 m/S 761 mmHg 91%
    21:00 +27°C° 0,1 mm 4 m/S 761 mmHg 95%
    22:00 +27°C° 0,3 mm 4 m/S 761 mmHg 96%
    23:00 +27°C° 0,3 mm 4 m/S 761 mmHg 97%

    26 Juli, Mittwoch

    Zeit Temperatur Niederschläge Wind Luftdruck Luftfeuchtigkeit
    00:00 +27°C° 0,3 mm 4 m/S 761 mmHg 98%
    01:00 +27°C° 0,2 mm 4 m/S 760 mmHg 98%
    02:00 +27°C° 0,2 mm 4 m/S 760 mmHg 98%
    03:00 +26°C° 0,2 mm 4 m/S 759 mmHg 98%
    04:00 +27°C° 0,4 mm 4 m/S 759 mmHg 98%
    05:00 +27°C° 0,4 mm 4 m/S 760 mmHg 98%
    06:00 +27°C° 0,4 mm 4 m/S 760 mmHg 98%
    07:00 +28°C° 1 mm 4 m/S 760 mmHg 95%
    08:00 +29°C° 1 mm 4 m/S 761 mmHg 92%
    09:00 +30°C° 1 mm 4 m/S 761 mmHg 89%
    10:00 +32°C° 0,6 mm 4 m/S 761 mmHg 86%
    11:00 +32°C° 0,6 mm 4 m/S 761 mmHg 83%
    12:00 +33°C° 0,6 mm 4 m/S 761 mmHg 80%
    13:00 +34°C° 0,1 mm 4 m/S 760 mmHg 72%
    14:00 +34°C° 0,1 mm 4 m/S 759 mmHg 64%
    15:00 +35°C° 0,1 mm 4 m/S 759 mmHg 57%
    16:00 +34°C° 0 mm 3 m/S 759 mmHg 63%
    17:00 +33°C° 0 mm 3 m/S 759 mmHg 70%
    18:00 +30°C° 0 mm 3 m/S 759 mmHg 77%
    19:00 +29°C° 0 mm 3 m/S 759 mmHg 83%
    20:00 +28°C° 0 mm 2 m/S 760 mmHg 90%
    21:00 +27°C° 0 mm 2 m/S 760 mmHg 96%
    22:00 +27°C° 0 mm 2 m/S 760 mmHg 97%
    23:00 +26°C° 0 mm 2 m/S 760 mmHg 98%

    27 Juli, Donnerstag

    Zeit Temperatur Niederschläge Wind Luftdruck Luftfeuchtigkeit
    00:00 +26°C° 0 mm 2 m/S 760 mmHg 98%
    01:00 +26°C° 0 mm 2 m/S 759 mmHg 99%
    02:00 +26°C° 0 mm 1 m/S 759 mmHg 99%
    03:00 +26°C° 0 mm 1 m/S 759 mmHg 99%
    04:00 +26°C° 0 mm 1 m/S 759 mmHg 99%
    05:00 +26°C° 0 mm 1 m/S 759 mmHg 99%
    06:00 +26°C° 0 mm 1 m/S 759 mmHg 99%
    07:00 +27°C° 0,1 mm 1 m/S 760 mmHg 91%
    08:00 +29°C° 0,1 mm 1 m/S 760 mmHg 84%
    09:00 +31°C° 0,1 mm 1 m/S 760 mmHg 76%
    10:00 +33°C° 0 mm 1 m/S 760 mmHg 68%
    11:00 +35°C° 0 mm 2 m/S 760 mmHg 60%
    12:00 +37°C° 0 mm 2 m/S 759 mmHg 51%
    13:00 +37°C° 0 mm 2 m/S 759 mmHg 49%
    14:00 +37°C° 0 mm 3 m/S 758 mmHg 48%
    15:00 +37°C° 0 mm 3 m/S 758 mmHg 46%
    16:00 +35°C° 0 mm 3 m/S 758 mmHg 55%
    17:00 +33°C° 0 mm 3 m/S 758 mmHg 65%
    18:00 +30°C° 0 mm 3 m/S 758 mmHg 74%
    19:00 +29°C° 0 mm 3 m/S 758 mmHg 81%
    20:00 +28°C° 0 mm 3 m/S 759 mmHg 87%
    21:00 +26°C° 0 mm 3 m/S 759 mmHg 94%
    22:00 +26°C° 0 mm 3 m/S 759 mmHg 95%
    23:00 +26°C° 0 mm 2 m/S 759 mmHg 96%

    28 Juli, Freitag

    Zeit Temperatur Niederschläge Wind Luftdruck Luftfeuchtigkeit
    00:00 +26°C° 0 mm 2 m/S 759 mmHg 97%
    01:00 +25°C° 0 mm 2 m/S 759 mmHg 98%
    02:00 +25°C° 0 mm 2 m/S 758 mmHg 98%
    03:00 +25°C° 0 mm 1 m/S 758 mmHg 98%
    04:00 +25°C° 0 mm 1 m/S 758 mmHg 98%
    05:00 +24°C° 0 mm 1 m/S 759 mmHg 98%
    06:00 +24°C° 0 mm 1 m/S 759 mmHg 98%
    07:00 +27°C° 0 mm 1 m/S 759 mmHg 86%
    08:00 +30°C° 0 mm 1 m/S 760 mmHg 73%
    09:00 +33°C° 0 mm 1 m/S 760 mmHg 61%
    10:00 +34°C° 0 mm 1 m/S 760 mmHg 56%
    11:00 +36°C° 0 mm 2 m/S 759 mmHg 51%
    12:00 +37°C° 0 mm 2 m/S 759 mmHg 46%
    13:00 +37°C° 0 mm 2 m/S 759 mmHg 47%
    14:00 +37°C° 0 mm 3 m/S 758 mmHg 48%
    15:00 +36°C° 0 mm 3 m/S 758 mmHg 49%
    16:00 +35°C° 0 mm 3 m/S 758 mmHg 57%
    17:00 +33°C° 0 mm 3 m/S 758 mmHg 66%
    18:00 +30°C° 0 mm 3 m/S 758 mmHg 74%
    19:00 +29°C° 0 mm 3 m/S 758 mmHg 80%
    20:00 +28°C° 0 mm 3 m/S 759 mmHg 86%
    21:00 +27°C° 0 mm 4 m/S 759 mmHg 93%
    22:00 +27°C° 0 mm 4 m/S 759 mmHg 93%
    23:00 +27°C° 0 mm 3 m/S 759 mmHg 94%
    Mehr zeigen